Regional Weather Roundup
Issued by NWS Kansas City/Pleasant Hill, MO

Home | Current Version | Previous Version | Text Only | Print | Product List | Glossary On
Versions: 1 2 3 4 5 6 7 8 9 10 11 12 13 14 15 16 17 18 19 20 21 22 23 24 25 26 27 28 29 30 31 32 33 34 35 36 37 38 39 40 41 42 43 44 45 46 47 48 49 50
000
ASUS43 KEAX 282110
RWREAX

WEATHER ROUNDUP FOR EASTERN KANSAS AND NORTHWEST MISSOURI
NATIONAL WEATHER SERVICE KANSAS CITY/PLEASANT HILL MO
400 PM CDT FRI APR 28 2017

KSZ040-057-103>105-MOZ028-029-037-043-282200-
...KANSAS CITY METROPOLITAN AREA...

CITY           SKY/WX    TMP DP  RH WIND       PRES   REMARKS
K.C. INTL      DRZL/FOG  54  53  97 NE9       29.71R VSB 1/4
K.C. DOWNTOWN  CLOUDY    63  58  83 S5        29.70R
LEES SUMMIT    CLOUDY    62  57  83 SW8       29.71R
OLATHE - IXD   MOSUNNY   64  58  80 VRB6      29.70R
OLATHE - OJC   CLOUDY    61  59  93 S7        29.70R
LAWRENCE       CLOUDY    65  58  78 E3        29.70R

$$

MOZ001>008-011>017-020>025-030>033-038>040-044>046-053-054-282200-
...NORTHERN AND CENTRAL MISSOURI...

CITY           SKY/WX    TMP DP  RH WIND       PRES   REMARKS
ST. JOSEPH     CLOUDY    47  46  97 NE10      29.75R
MOSBY          DRIZZLE   55  54  94 N7        29.72R
WHITEMAN AFB   CLOUDY    62  62 100 S9        29.70S
CLINTON        CLOUDY    61  59  94 S7        29.71S
SEDALIA        CLOUDY    61  59  93 SE10      29.73R
WARSAW         NOT AVBL
CHILLICOTHE      N/A     50  48  93 VRB6      29.76R
KIRKSVILLE     CLOUDY    49  31  49 N12       29.76S HAZE

$$

MOZ041-047>049-056>058-063>065-088>090-097-282200-
...EASTERN AND SOUTHERN MISSOURI...

CITY           SKY/WX    TMP DP  RH WIND       PRES   REMARKS
ST. LOUIS INTL DRIZZLE   57  55  93 E8        29.78F FOG
SPIRIT OF STL  CLOUDY    57  56  96 E9        29.76F FOG
COLUMBIA       CLOUDY    59  56  89 SE12      29.73S
JEFFERSON CITY CLOUDY    60  56  86 SE9       29.74S FOG
ROLLA          CLOUDY    57  57 100 E7        29.73S FOG
OSAGE BEACH    CLOUDY    59  58  96 E6        29.73S FOG
SPRINGFIELD    CLOUDY    64  60  87 S9        29.71R
BRANSON        CLOUDY    63  63 100 SE3       29.73R FOG
JOPLIN         CLOUDY    67  62  84 VRB5      29.68F
WEST PLAINS    CLOUDY    62  61  96 S8        29.77R FOG

$$

IAZ060-094-KSZ022-034>040-054-083-096-NEZ052-066-093-282200-
...KANSAS...SOUTHEAST NEBRASKA AND IOWA...

CITY           SKY/WX    TMP DP  RH WIND       PRES   REMARKS
TOPEKA         PTSUNNY   62  58  86 N13       29.69R
MANHATTAN      CLOUDY    57  52  83 NE12      29.72R
EMPORIA        SUNNY     70  53  54 CALM      29.67R
CHANUTE        CLOUDY    69  56  62 CALM      29.68S
WICHITA        MOSUNNY   72  46  39 N12G20    29.63F
OMAHA          DRIZZLE   41  36  82 NE14      29.86R WCI  33
LINCOLN        LGT RAIN  42  40  92 NE14G25   29.85R FOG     WCI  35
FALLS CITY     CLOUDY    44  43  96 NE13      29.77R FOG
LAMONI         CLOUDY    41  39  93 NE16      29.79S WCI  33
DES MOINES     CLOUDY    42  39  89 NE15      29.86R WCI  34

$$




USA.gov is the U.S. government's official web portal to all federal, state and local government web resources and services.